Powrót do katalogu

OPS 4682 DEB

AktywnyPO
NORAD 51766·DEBRIS·🇺🇸 United States

Wystrzelony Apr 3, 1965 z Vandenberg Space Force Base

Loading…

Następne Przeloty (najbliższe 24 godziny)

TLE

ŚwieżeSource: Space-Track

Epoka: Sep 13, 2026, 13:59 UTC

1 51766U 65027GX  26256.58319656 -.00000080  00000-0 -31929-3 0  9996
2 51766  90.2535   9.8524 0031471  49.8040 310.5826 12.93294776553660

Śledź OPS 4682 DEB w czasie rzeczywistym z AllMySat

Download on the App Store